| time (UTC) | temp F | wind direction | speed MPH | gust MPH | rain 1hr in | rain 24hr in | rain mn in | humidity % | barometer mb |
| 20260504034531 | 64 | 0.0 | 2.0 | 0.00 | 0.01 | 0.00 | 85 | 1015.0 | |
| 20260504033509 | 64 | 0.0 | 2.0 | 0.00 | 0.01 | 0.00 | 85 | 1015.1 | |
| 20260504032526 | 64 | 0.0 | 2.0 | 0.00 | 0.01 | 0.00 | 86 | 1015.2 | |
| 20260504031501 | 64 | 0.0 | 0.0 | 0.00 | 0.01 | 0.00 | 86 | 1015.3 | |
| 20260504030458 | 63 | 0.0 | 0.0 | 0.00 | 0.01 | 0.00 | 86 | 1015.4 | |
| 20260504025455 | 64 | 0.0 | 0.0 | 0.00 | 0.01 | 0.00 | 87 | 1015.5 | |
| 20260504024513 | 64 | 0.0 | 0.0 | 0.00 | 0.01 | 0.00 | 87 | 1015.5 | |
| 20260504023450 | 63 | 0.0 | 2.0 | 0.00 | 0.01 | 0.00 | 87 | 1015.5 | |
| 20260504022445 | 64 | 0.0 | 0.0 | 0.00 | 0.01 | 0.00 | 87 | 1015.5 | |
| 20260504021442 | 64 | 0.0 | 0.0 | 0.00 | 0.01 | 0.00 | 87 | 1015.5 | |
| 20260504020439 | 64 | 0.0 | 0.0 | 0.00 | 0.01 | 0.00 | 87 | 1015.4 | |
| 20260504015435 | 64 | 45 | 2.0 | 4.0 | 0.00 | 0.01 | 0.00 | 86 | 1015.3 |
| 20260504014432 | 64 | 45 | 2.0 | 4.0 | 0.00 | 0.01 | 0.00 | 86 | 1015.3 |
| 20260504013449 | 64 | 45 | 1.0 | 2.0 | 0.00 | 0.01 | 0.00 | 85 | 1015.3 |
| 20260504012426 | 64 | 0.0 | 0.0 | 0.00 | 0.01 | 0.00 | 84 | 1015.5 | |
| 20260504011423 | 64 | 45 | 1.0 | 2.0 | 0.00 | 0.01 | 0.00 | 84 | 1015.5 |
| 20260504010419 | 64 | 45 | 0.0 | 2.0 | 0.00 | 0.01 | 0.00 | 84 | 1015.5 |
| 20260504005416 | 64 | 45 | 1.0 | 2.0 | 0.00 | 0.01 | 0.00 | 83 | 1015.4 |
| 20260504004513 | 64 | 68 | 0.0 | 2.0 | 0.00 | 0.01 | 0.00 | 83 | 1015.5 |
| 20260504003510 | 64 | 68 | 1.0 | 2.0 | 0.00 | 0.01 | 0.00 | 82 | 1015.6 |
| 20260504002507 | 64 | 0.0 | 0.0 | 0.00 | 0.01 | 0.00 | 82 | 1015.6 | |
| 20260504001503 | 64 | 0.0 | 0.0 | 0.00 | 0.01 | 0.00 | 82 | 1015.8 | |
| 20260504000500 | 64 | 0.0 | 0.0 | 0.00 | 0.01 | 0.00 | 82 | 1016.0 | |
| 20260503235457 | 64 | 68 | 0.0 | 2.0 | 0.00 | 0.01 | 0.00 | 82 | 1016.0 |
| 20260503234454 | 64 | 68 | 0.0 | 2.0 | 0.00 | 0.01 | 0.00 | 82 | 1016.1 |
| 20260503233451 | 64 | 90 | 2.0 | 4.0 | 0.00 | 0.01 | 0.00 | 82 | 1016.1 |
| 20260503232508 | 64 | 0.0 | 2.0 | 0.00 | 0.01 | 0.00 | 82 | 1016.1 | |
| 20260503231504 | 64 | 0.0 | 0.0 | 0.00 | 0.01 | 0.00 | 82 | 1016.2 | |
| 20260503230441 | 64 | 0.0 | 0.0 | 0.00 | 0.01 | 0.00 | 80 | 1016.2 | |
| 20260503225438 | 64 | 68 | 2.0 | 4.0 | 0.00 | 0.01 | 0.00 | 79 | 1016.1 |
| 20260503224435 | 64 | 68 | 2.0 | 4.0 | 0.00 | 0.01 | 0.00 | 82 | 1016.1 |
| 20260503223431 | 64 | 90 | 1.0 | 2.0 | 0.00 | 0.01 | 0.00 | 84 | 1016.1 |
| 20260503222428 | 64 | 0.0 | 0.0 | 0.00 | 0.01 | 0.00 | 85 | 1016.1 | |
| 20260503221425 | 64 | 90 | 0.0 | 2.0 | 0.00 | 0.01 | 0.00 | 85 | 1016.1 |
| 20260503220423 | 64 | 158 | 2.0 | 4.0 | 0.00 | 0.01 | 0.00 | 85 | 1016.2 |
| 20260503215420 | 64 | 90 | 2.0 | 4.0 | 0.00 | 0.01 | 0.01 | 85 | 1016.2 |
| 20260503214416 | 64 | 81 | 3.0 | 4.0 | 0.00 | 0.01 | 0.01 | 84 | 1016.3 |
| 20260503213513 | 64 | 98 | 4.0 | 7.0 | 0.00 | 0.01 | 0.01 | 84 | 1016.4 |
| 20260503212509 | 65 | 111 | 2.0 | 4.0 | 0.00 | 0.01 | 0.01 | 84 | 1016.5 |
| 20260503211509 | 65 | 126 | 3.0 | 4.0 | 0.00 | 0.01 | 0.01 | 84 | 1016.5 |
| 20260503210502 | 64 | 86 | 1.0 | 4.0 | 0.00 | 0.01 | 0.01 | 85 | 1016.6 |
| 20260503205501 | 64 | 97 | 4.0 | 6.0 | 0.00 | 0.01 | 0.01 | 85 | 1016.4 |
| 20260503204518 | 64 | 90 | 2.0 | 2.0 | 0.00 | 0.01 | 0.01 | 85 | 1016.2 |
| 20260503203453 | 65 | 68 | 3.0 | 4.0 | 0.00 | 0.01 | 0.01 | 85 | 1016.2 |
| 20260503202450 | 64 | 75 | 4.0 | 4.0 | 0.00 | 0.01 | 0.01 | 85 | 1015.9 |
| 20260503201447 | 64 | 80 | 5.0 | 7.0 | 0.00 | 0.01 | 0.01 | 85 | 1015.8 |
| 20260503200443 | 64 | 68 | 5.0 | 6.0 | 0.00 | 0.01 | 0.01 | 85 | 1015.7 |
| 20260503195440 | 65 | 68 | 1.0 | 2.0 | 0.00 | 0.01 | 0.01 | 85 | 1015.6 |
| 20260503194457 | 65 | 68 | 3.0 | 4.0 | 0.00 | 0.01 | 0.01 | 86 | 1015.7 |
| 20260503193435 | 64 | 45 | 2.0 | 4.0 | 0.00 | 0.01 | 0.01 | 85 | 1015.4 |
| 20260503192430 | 65 | 74 | 4.0 | 7.0 | 0.00 | 0.01 | 0.01 | 84 | 1015.4 |
| 20260503191447 | 64 | 52 | 3.0 | 4.0 | 0.00 | 0.01 | 0.01 | 85 | 1015.4 |
| 20260503190424 | 64 | 105 | 4.0 | 6.0 | 0.00 | 0.01 | 0.01 | 85 | 1015.5 |
| 20260503185421 | 65 | 74 | 9.0 | 11.0 | 0.00 | 0.01 | 0.01 | 85 | 1015.3 |
| 20260503184418 | 64 | 90 | 8.0 | 11.0 | 0.00 | 0.01 | 0.01 | 85 | 1015.3 |
| 20260503183514 | 65 | 60 | 3.0 | 6.0 | 0.00 | 0.01 | 0.01 | 84 | 1015.3 |
| 20260503182511 | 65 | 61 | 4.0 | 7.0 | 0.00 | 0.01 | 0.01 | 84 | 1015.1 |
| 20260503181508 | 65 | 68 | 9.0 | 13.0 | 0.00 | 0.01 | 0.01 | 84 | 1015.3 |
| 20260503180505 | 65 | 83 | 4.0 | 6.0 | 0.00 | 0.01 | 0.01 | 83 | 1014.9 |
| 20260503175523 | 65 | 68 | 7.0 | 11.0 | 0.00 | 0.01 | 0.01 | 83 | 1014.8 |
| 20260503174539 | 65 | 62 | 7.0 | 11.0 | 0.00 | 0.01 | 0.01 | 82 | 1015.0 |
| 20260503173455 | 65 | 68 | 6.0 | 11.0 | 0.00 | 0.01 | 0.01 | 81 | 1015.0 |
| 20260503172452 | 65 | 90 | 8.0 | 11.0 | 0.00 | 0.01 | 0.01 | 81 | 1015.0 |
| 20260503171448 | 65 | 47 | 7.0 | 13.0 | 0.00 | 0.01 | 0.01 | 80 | 1015.1 |
| 20260503170507 | 65 | 91 | 6.0 | 9.0 | 0.00 | 0.01 | 0.01 | 80 | 1015.1 |
| 20260503150506 | 66 | 100 | 8.0 | 14.0 | 0.00 | 0.01 | 0.01 | 76 | 1015.1 |
| 20260503130428 | 68 | 129 | 3.0 | 7.0 | 0.00 | 0.01 | 0.01 | 72 | 1016.1 |
| 20260503110449 | 65 | 68 | 9.0 | 11.0 | 0.00 | 0.01 | 0.01 | 77 | 1017.1 |
| 20260503090510 | 65 | 106 | 5.0 | 9.0 | 0.00 | 0.01 | 0.01 | 83 | 1017.8 |
| 20260503081454 | 64 | 126 | 5.0 | 9.0 | 0.00 | 0.01 | 0.01 | 85 | 1017.7 |
| 20260503080451 | 64 | 152 | 2.0 | 4.0 | 0.00 | 0.01 | 0.01 | 85 | 1017.8 |
| 20260503072439 | 64 | 122 | 3.0 | 6.0 | 0.00 | 0.01 | 0.01 | 87 | 1017.6 |
| 20260503071436 | 64 | 96 | 6.0 | 11.0 | 0.00 | 0.01 | 0.01 | 86 | 1017.5 |
| 20260503070452 | 64 | 133 | 3.0 | 4.0 | 0.00 | 0.01 | 0.01 | 86 | 1017.5 |
| 20260503054506 | 63 | 23 | 1.0 | 2.0 | 0.01 | 0.01 | 0.01 | 91 | 1017.4 |
| 20260503053502 | 64 | 45 | 0.0 | 2.0 | 0.01 | 0.01 | 0.01 | 90 | 1017.2 |
| 20260503052459 | 64 | 45 | 1.0 | 2.0 | 0.00 | 0.00 | 0.00 | 90 | 1017.3 |
| 20260503051457 | 63 | 75 | 2.0 | 2.0 | 0.00 | 0.00 | 0.00 | 90 | 1017.2 |
| 20260503050454 | 63 | 23 | 0.0 | 2.0 | 0.00 | 0.00 | 0.00 | 91 | 1017.4 |
| 20260503045450 | 63 | 23 | 1.0 | 2.0 | 0.00 | 0.00 | 0.00 | 91 | 1017.3 |
| 20260503044509 | 63 | 60 | 2.0 | 2.0 | 0.00 | 0.00 | 0.00 | 91 | 1017.2 |
| 20260503043443 | 63 | 41 | 1.0 | 2.0 | 0.00 | 0.00 | 0.00 | 91 | 1017.0 |
| 20260503042501 | 63 | 62 | 2.0 | 4.0 | 0.00 | 0.00 | 0.00 | 91 | 1017.1 |
| 20260503041437 | 63 | 60 | 2.0 | 4.0 | 0.00 | 0.00 | 0.00 | 91 | 1017.2 |
| 20260503040434 | 63 | 45 | 1.0 | 2.0 | 0.00 | 0.00 | 0.00 | 92 | 1017.3 |
| 20260503035431 | 63 | 56 | 2.0 | 4.0 | 0.00 | 0.00 | 0.00 | 91 | 1017.2 |